Notices

What's New in latest Release from April 7th, 2021:

- Updated Glossary, including Speed of Maximum Gust, and Total Hourly Precipitation

- Updated national and regional climate services offices contacts and prices information

- Addition of station inventory lists for 1981-2010, 1971-2000, and 1961-1990 Normals.

If you haven't already, please take our survey and provide feedback about our website: https://eccc.sondage-survey.ca/f/LanguageSelection.aspx?s=442ca660-fcf1-47c0-95a9-59707d6fd709

Hourly Data Report for September 20, 2018

TORONTO CITY
ONTARIO
Current Station Operator: ECCC - MSC

43°40'00.000" N
79°24'00.000" W
112.50 m
6158355
71508
XTO

Download Data

Hourly Data (September 2018)
Hourly Data Report for September 20, 2018
TIME
LST
Temp Definition
°C
Dew Point Definition
°C
Rel Hum Definition
%
Precip. Amount Definition
mm

Wind Dir Definition
10's deg

Wind Spd Definition
km/h
Visibility Definition
km
Stn Press Definition
kPa
Hmdx Definition


Wind Chill Definition


Weather Definition


00:00 17.9 12.1 69 0.0 LegendMM LegendMM   100.65     LegendNANA
01:00 18.1 12.5 70 0.0 LegendMM LegendMM   100.62     LegendNANA
02:00 17.9 13.1 73 0.0 LegendMM LegendMM   100.59     LegendNANA
03:00 16.3 12.1 76 0.0 LegendMM LegendMM   100.64     LegendNANA
04:00 15.8 11.9 77 0.0 LegendMM LegendMM   100.63     LegendNANA
05:00 15.8 11.9 77 0.0 LegendMM LegendMM   100.67     LegendNANA
06:00 15.8 12.0 78 0.0 LegendMM LegendMM   100.74     LegendNANA
07:00 17.1 13.1 77 0.0 LegendMM LegendMM   100.76     LegendNANA
08:00 17.5 13.1 75 0.0 LegendMM LegendMM   100.83     LegendNANA
09:00 18.1 12.5 70 0.0 LegendMM LegendMM   100.84     LegendNANA
10:00 18.6 12.4 67 0.0 LegendMM LegendMM   100.90     LegendNANA
11:00 18.5 11.9 65 0.0 LegendMM LegendMM   100.82     LegendNANA
12:00 18.6 12.0 65 0.0 LegendMM LegendMM   100.81     LegendNANA
13:00 18.4 11.9 66 0.0 LegendMM LegendMM   100.79     LegendNANA
14:00 18.1 12.0 67 0.0 LegendMM LegendMM   100.68     LegendNANA
15:00 18.2 12.2 68 0.0 LegendMM LegendMM   100.67     LegendNANA
16:00 18.1 12.3 69 0.0 LegendMM LegendMM   100.59     LegendNANA
17:00 18.4 11.8 65 0.0 LegendMM LegendMM   100.55     LegendNANA
18:00 18.6 12.3 67 0.0 LegendMM LegendMM   100.58     LegendNANA
19:00 18.6 12.9 70 0.0 LegendMM LegendMM   100.57     LegendNANA
20:00 18.6 13.2 71 0.0 LegendMM LegendMM   100.56     LegendNANA
21:00 18.5 13.9 74 0.0 LegendMM LegendMM   100.47     LegendNANA
22:00 18.7 14.5 77 0.0 LegendMM LegendMM   100.37     LegendNANA
23:00 18.9 15.2 79 0.0 LegendMM LegendMM   100.28     LegendNANA

Notes on Data Quality.

Legend

  • E = Estimated
  • M = Missing
  • NA = Not Available*
  • [empty] = Indicates an unobserved value
Date modified: